• In Belarus
  • List of Countries
  • For 7 days
  • Water Temperature
  • Satellite Maps
  • Weather Map
  • Weather Widgets
  • user-avatar
    Login

    Hourly Weather Rogatin

    Today, 11 December, Monday

    Time Temperature Precipitation Wind Pressure Humidity
    00:00 -4°C° 0 mm 5 mps 730 mmHg 67%
    01:00 -4°C° 0 mm 5 mps 729 mmHg 65%
    02:00 -2°C° 0 mm 3 mps 728 mmHg 74%
    03:00 -3°C° 0 mm 4 mps 729 mmHg 73%
    04:00 -2°C° 0 mm 4 mps 729 mmHg 72%
    05:00 -2°C° 0 mm 5 mps 729 mmHg 71%
    06:00 -1°C° 0 mm 5 mps 729 mmHg 72%
    07:00 -1°C° 0 mm 5 mps 729 mmHg 74%
    08:00 0°C° 0 mm 3 mps 729 mmHg 76%
    09:00 0°C° 0.1 mm 4 mps 729 mmHg 76%
    10:00 +1°C° 0.1 mm 4 mps 729 mmHg 76%
    11:00 +3°C° 0.1 mm 4 mps 730 mmHg 77%
    12:00 +3°C° 0 mm 5 mps 729 mmHg 76%
    13:00 +5°C° 0 mm 5 mps 729 mmHg 76%
    14:00 +5°C° 0 mm 5 mps 729 mmHg 75%
    15:00 +5°C° 0 mm 5 mps 729 mmHg 77%
    16:00 +5°C° 0 mm 5 mps 730 mmHg 78%
    17:00 +5°C° 0 mm 5 mps 730 mmHg 80%
    18:00 +5°C° 0 mm 5 mps 730 mmHg 79%
    19:00 +5°C° 0 mm 5 mps 730 mmHg 79%
    20:00 +4°C° 0 mm 6 mps 730 mmHg 78%
    21:00 +4°C° 0 mm 6 mps 730 mmHg 78%
    22:00 +4°C° 0 mm 6 mps 730 mmHg 77%
    23:00 +4°C° 0 mm 6 mps 731 mmHg 77%

    Tomorrow, 12 December, Tuesday

    Time Temperature Precipitation Wind Pressure Humidity
    00:00 +5°C° 0 mm 7 mps 731 mmHg 76%
    01:00 +5°C° 0 mm 7 mps 731 mmHg 75%
    02:00 +5°C° 0 mm 7 mps 731 mmHg 73%
    03:00 +5°C° 0 mm 7 mps 731 mmHg 73%
    04:00 +5°C° 0 mm 7 mps 731 mmHg 73%
    05:00 +5°C° 0 mm 6 mps 731 mmHg 73%
    06:00 +5°C° 0 mm 6 mps 731 mmHg 74%
    07:00 +6°C° 0 mm 5 mps 731 mmHg 75%
    08:00 +6°C° 0 mm 5 mps 731 mmHg 76%
    09:00 +7°C° 0 mm 5 mps 732 mmHg 74%
    10:00 +8°C° 0 mm 5 mps 732 mmHg 71%
    11:00 +9°C° 0 mm 5 mps 733 mmHg 69%
    12:00 +10°C° 0 mm 6 mps 733 mmHg 68%
    13:00 +10°C° 0 mm 6 mps 733 mmHg 67%
    14:00 +11°C° 0 mm 7 mps 733 mmHg 66%
    15:00 +10°C° 0 mm 6 mps 734 mmHg 69%
    16:00 +10°C° 0 mm 6 mps 734 mmHg 72%
    17:00 +9°C° 0 mm 6 mps 735 mmHg 74%
    18:00 +9°C° 0 mm 6 mps 735 mmHg 76%
    19:00 +8°C° 0 mm 5 mps 735 mmHg 78%
    20:00 +8°C° 0 mm 5 mps 736 mmHg 79%
    21:00 +8°C° 0.1 mm 4 mps 736 mmHg 81%
    22:00 +7°C° 0.1 mm 4 mps 736 mmHg 82%
    23:00 +8°C° 0.1 mm 3 mps 737 mmHg 83%

    Day after tomorrow, 13 December, Wednesday

    Time Temperature Precipitation Wind Pressure Humidity
    00:00 +7°C° 0.2 mm 3 mps 737 mmHg 84%
    01:00 +7°C° 0.2 mm 3 mps 737 mmHg 84%
    02:00 +5°C° 0.2 mm 3 mps 738 mmHg 84%
    03:00 +4°C° 0.4 mm 4 mps 738 mmHg 84%
    04:00 +4°C° 0.4 mm 4 mps 738 mmHg 84%
    05:00 +3°C° 0.4 mm 4 mps 738 mmHg 84%
    06:00 +1°C° 0.6 mm 4 mps 739 mmHg 85%
    07:00 +1°C° 0.6 mm 4 mps 739 mmHg 86%
    08:00 +2°C° 0.6 mm 3 mps 740 mmHg 87%
    09:00 +1°C° 0.6 mm 3 mps 740 mmHg 89%
    10:00 +1°C° 0.6 mm 3 mps 740 mmHg 90%
    11:00 +2°C° 0.6 mm 2 mps 741 mmHg 92%
    12:00 +2°C° 0.1 mm 2 mps 741 mmHg 91%
    13:00 +2°C° 0.1 mm 2 mps 740 mmHg 90%
    14:00 +3°C° 0.1 mm 2 mps 740 mmHg 89%
    15:00 +2°C° 0 mm 2 mps 740 mmHg 90%
    16:00 +3°C° 0 mm 1 mps 740 mmHg 91%
    17:00 +2°C° 0 mm 1 mps 740 mmHg 92%
    18:00 +2°C° 0 mm 1 mps 740 mmHg 92%
    19:00 +2°C° 0 mm 1 mps 739 mmHg 92%
    20:00 +1°C° 0 mm 1 mps 739 mmHg 92%
    21:00 +1°C° 0 mm 1 mps 739 mmHg 92%
    22:00 +1°C° 0 mm 1 mps 739 mmHg 92%
    23:00 +1°C° 0 mm 1 mps 739 mmHg 92%

    14 December, Thursday

    Time Temperature Precipitation Wind Pressure Humidity
    00:00 -1°C° 0 mm 2 mps 738 mmHg 93%
    01:00 -1°C° 0 mm 2 mps 738 mmHg 93%
    02:00 -2°C° 0 mm 2 mps 737 mmHg 93%
    03:00 -1°C° 0 mm 3 mps 737 mmHg 93%
    04:00 -1°C° 0 mm 3 mps 736 mmHg 92%
    05:00 -1°C° 0 mm 3 mps 736 mmHg 92%
    06:00 -1°C° 0 mm 3 mps 736 mmHg 91%
    07:00 -1°C° 0 mm 3 mps 736 mmHg 89%
    08:00 -1°C° 0 mm 3 mps 735 mmHg 88%
    09:00 -1°C° 0 mm 4 mps 735 mmHg 84%
    10:00 0°C° 0 mm 4 mps 735 mmHg 80%
    11:00 +1°C° 0 mm 4 mps 734 mmHg 75%
    12:00 +1°C° 0 mm 4 mps 734 mmHg 74%
    13:00 +3°C° 0 mm 4 mps 733 mmHg 73%
    14:00 +4°C° 0 mm 4 mps 733 mmHg 72%
    15:00 +3°C° 0 mm 4 mps 733 mmHg 74%
    16:00 +1°C° 0 mm 4 mps 732 mmHg 76%
    17:00 +1°C° 0 mm 4 mps 732 mmHg 79%
    18:00 +1°C° 0.1 mm 4 mps 732 mmHg 79%
    19:00 +1°C° 0.1 mm 4 mps 731 mmHg 79%
    20:00 +1°C° 0.1 mm 4 mps 731 mmHg 79%
    21:00 +1°C° 0.3 mm 4 mps 731 mmHg 80%
    22:00 +1°C° 0.3 mm 4 mps 730 mmHg 80%
    23:00 +3°C° 0.3 mm 4 mps 730 mmHg 81%

    15 December, Friday

    Time Temperature Precipitation Wind Pressure Humidity
    00:00 +3°C° 0.3 mm 4 mps 730 mmHg 80%
    01:00 +2°C° 0.3 mm 5 mps 729 mmHg 80%
    02:00 +2°C° 0.3 mm 5 mps 728 mmHg 80%
    03:00 +2°C° 0 mm 5 mps 728 mmHg 81%
    04:00 +3°C° 0 mm 4 mps 728 mmHg 81%
    05:00 +1°C° 0 mm 4 mps 727 mmHg 82%
    06:00 +3°C° 0 mm 4 mps 728 mmHg 82%
    07:00 +3°C° 0 mm 4 mps 728 mmHg 81%
    08:00 +3°C° 0 mm 4 mps 728 mmHg 81%
    09:00 +3°C° 0 mm 5 mps 728 mmHg 80%
    10:00 +5°C° 0 mm 5 mps 729 mmHg 78%
    11:00 +6°C° 0 mm 5 mps 730 mmHg 77%
    12:00 +6°C° 0 mm 4 mps 730 mmHg 78%
    13:00 +7°C° 0 mm 3 mps 729 mmHg 80%
    14:00 +6°C° 0 mm 2 mps 729 mmHg 81%
    15:00 +6°C° 0.7 mm 2 mps 729 mmHg 85%
    16:00 +5°C° 0.7 mm 2 mps 729 mmHg 88%
    17:00 +6°C° 0.7 mm 1 mps 730 mmHg 91%
    18:00 +4°C° 1 mm 2 mps 729 mmHg 93%
    19:00 +4°C° 1 mm 2 mps 729 mmHg 94%
    20:00 +4°C° 1 mm 2 mps 728 mmHg 95%
    21:00 +4°C° 0.8 mm 2 mps 728 mmHg 95%
    22:00 +3°C° 0.8 mm 3 mps 727 mmHg 95%
    23:00 +3°C° 0.8 mm 3 mps 726 mmHg 95%

    16 December, Saturday

    Time Temperature Precipitation Wind Pressure Humidity
    00:00 +3°C° 0.5 mm 3 mps 725 mmHg 95%
    01:00 +4°C° 0.5 mm 2 mps 725 mmHg 95%
    02:00 +4°C° 0.5 mm 2 mps 724 mmHg 95%
    03:00 +4°C° 0.3 mm 2 mps 724 mmHg 95%
    04:00 +4°C° 0.3 mm 2 mps 723 mmHg 94%
    05:00 +4°C° 0.3 mm 2 mps 723 mmHg 94%
    06:00 +1°C° 0.3 mm 4 mps 724 mmHg 92%
    07:00 +1°C° 0.3 mm 5 mps 725 mmHg 91%
    08:00 0°C° 0.3 mm 7 mps 726 mmHg 89%
    09:00 +1°C° 0.1 mm 6 mps 727 mmHg 87%
    10:00 -1°C° 0.1 mm 6 mps 728 mmHg 84%
    11:00 -1°C° 0.1 mm 6 mps 730 mmHg 82%
    12:00 +1°C° 0 mm 6 mps 730 mmHg 79%
    13:00 +1°C° 0 mm 6 mps 731 mmHg 77%
    14:00 +1°C° 0 mm 6 mps 732 mmHg 75%
    15:00 +1°C° 0 mm 5 mps 732 mmHg 77%
    16:00 0°C° 0 mm 4 mps 733 mmHg 80%
    17:00 0°C° 0 mm 4 mps 734 mmHg 82%
    18:00 -1°C° 0 mm 4 mps 734 mmHg 83%
    19:00 0°C° 0 mm 3 mps 735 mmHg 84%
    20:00 0°C° 0 mm 3 mps 736 mmHg 84%
    21:00 0°C° 0 mm 3 mps 736 mmHg 84%
    22:00 0°C° 0 mm 3 mps 737 mmHg 84%
    23:00 -1°C° 0 mm 3 mps 737 mmHg 83%
    Show more